Regional Weather Roundup
Issued by NWS

Home | Current Version | Previous Version | Graphics & Text | Print | Product List | Glossary On
Versions: 1 2 3 4 5 6 7 8 9 10 11 12 13 14 15 16 17 18 19 20 21 22 23 24 25 26 27 28 29 30 31 32 33 34 35 36 37 38 39 40 41 42 43 44 45 46 47 48 49 50
000
ASUS43 KLOT 260558
RWRIL

ILLINOIS REGIONAL WEATHER ROUNDUP
NATIONAL WEATHER SERVICE CHICAGO/ROMEOVILLE IL
1200 AM CST FRI DEC 26 2014

NOTE: "FAIR" INDICATES FEW OR NO CLOUDS BELOW 12,000 FEET WITH NO
SIGNIFICANT WEATHER AND/OR OBSTRUCTIONS TO VISIBILITY.

* THESE STATIONS ARE NOT UNDER NWS QUALITY CONTROL. THEY ALSO MAY NOT
  REPORT WEATHER SUCH AS PRECIPITATION OR FOG.

ILZ001-002-007-009-015-016-024-260700-
NORTHWEST ILLINOIS

CITY           SKY/WX    TMP DP  RH WIND       PRES   REMARKS
MOLINE         CLOUDY    42  33  70 S15       29.91F
6HR MIN TEMP:  39; 6HR MAX TEMP:  42;

$$

ILZ003-004-008-010-011-017-018-260700-
NORTH CENTRAL ILLINOIS

CITY           SKY/WX    TMP DP  RH WIND       PRES   REMARKS
ROCKFORD       NOT AVBL
$$

ILZ005-006-012>014-019>023-260700-
NORTHEAST ILLINOIS

CITY           SKY/WX    TMP DP  RH WIND       PRES   REMARKS
CHICAGO-OHARE  CLOUDY    38  32  79 S15       29.99F WCI  29
6HR MIN TEMP:  38; 6HR MAX TEMP:  41;

CHICAGO-MIDWAY NOT AVBL
AURORA         PTCLDY    37  32  82 S10       29.99F WCI  30
6HR MIN TEMP:  36; 6HR MAX TEMP:  41;

WAUKEGAN       NOT AVBL
DUPAGE AIRPORT MOCLDY    38  33  82 S14       29.99F WCI  30
6HR MIN TEMP:  37; 6HR MAX TEMP:  41;

WHEELING       CLOUDY    39  32  76 S13       30.02F WCI  31
6HR MIN TEMP:  39; 6HR MAX TEMP:  41;

NORTHERLY ISL    N/A     41  32  70 SW17        N/A
$$

LMZ740>746-260700-
SOUTHERN LAKE MICHIGAN

STATION/POSITION SKY/WX   TEMP    WIND        PRES    VSBY  WAVE
                          AIR SEA DIR/SP/G                  HT/PER
                          (F)     (DEG/KT/KT) (MB)    (MI)  (FT/S)
WAUKEGAN HARBOR            41                   N/A
HARRISON CRIB              40     190/ 23/ 27   N/A
BURNHAM HARBOR             41     190/ 18/ 19   N/A
CALUMET HARBOR             39     170/ 10/ 16 1015.7R
MICHIGAN CITY              38     160/ 14/ 19   N/A
$$

ILZ025>027-034>036-040-047-049-050-058-095>099-260700-
WEST-CENTRAL ILLINOIS

CITY           SKY/WX    TMP DP  RH WIND       PRES   REMARKS
$$

ILZ028>032-037-038-041>044-048-051>054-059>061-260700-
CENTRAL ILLINOIS

CITY           SKY/WX    TMP DP  RH WIND       PRES   REMARKS
PEORIA         NOT AVBL
SPRINGFIELD    PTCLDY    42  34  73 S16       30.03R
6HR MIN TEMP:  41; 6HR MAX TEMP:  44;

TAYLORVILLE    NOT AVBL
$$

ILZ033-039-045-046-055>057-062-063-260700-
EAST-CENTRAL ILLINOIS

CITY           SKY/WX    TMP DP  RH WIND       PRES   REMARKS
CHAMPAIGN      CLEAR     35  31  85 S10       30.06R WCI  27
$$

ILZ079-100>102-260700-
SOUTHWEST ILLINOIS

CITY           SKY/WX    TMP DP  RH WIND       PRES   REMARKS
CAHOKIA*       PTCLDY    40  35  83 SE6       30.02R
$$

ILZ064>066-069>071-074>076-080>082-084>086-088>090-092>094-260700-
SOUTH-CENTRAL ILLINOIS

CITY           SKY/WX    TMP DP  RH WIND       PRES   REMARKS
CARBONDALE     PTCLDY    42  33  70 S10       30.08S
6HR MIN TEMP:  40; 6HR MAX TEMP:  43;

$$

ILZ067-068-072-073-078-083-087-091-260700-
SOUTHEAST ILLINOIS

CITY           SKY/WX    TMP DP  RH WIND       PRES   REMARKS
$$

ABBREVIATIONS USED IN REMARKS
   TC - TEMPERATURE IN CELSIUS
  WCI - WIND CHILL INDEX
   HX - HEAT INDEX
  VSB - VISIBILITY
$$



USA.gov is the U.S. government's official web portal to all federal, state and local government web resources and services.